When you browse on this site, cookies collect data to enhance your experience and personalize the content and advertising you see.
Visit our Privacy Policy to learn more. By continuing to use the site, you agree to this use of cookies and data.
  • In Schweiz
  • Länderverzeichnis
  • Für 7 Tage
  • Wassertemperatur
  • Satellitenkarten
  • Wetterkarte
  • Widgets
  • user-avatar
    Anmelden

    Stündliche Wetter Brühl

    Heute, 22 Juli, Montag

    Zeit Temperatur Niederschläge Wind Luftdruck Luftfeuchtigkeit
    00:00 +19°C° 0 mm 1 m/S 761 mmHg 72%
    01:00 +17°C° 0 mm 2 m/S 761 mmHg 73%
    02:00 +17°C° 0 mm 2 m/S 761 mmHg 74%
    03:00 +17°C° 0 mm 2 m/S 761 mmHg 75%
    04:00 +19°C° 0 mm 1 m/S 761 mmHg 72%
    05:00 +20°C° 0 mm 1 m/S 761 mmHg 69%
    06:00 +21°C° 0 mm 1 m/S 761 mmHg 66%
    07:00 +22°C° 0 mm 1 m/S 761 mmHg 61%
    08:00 +24°C° 0 mm 2 m/S 761 mmHg 57%
    09:00 +25°C° 0 mm 2 m/S 762 mmHg 52%
    10:00 +26°C° 0 mm 2 m/S 761 mmHg 49%
    11:00 +27°C° 0 mm 3 m/S 761 mmHg 47%
    12:00 +28°C° 0 mm 3 m/S 761 mmHg 44%
    13:00 +28°C° 0 mm 3 m/S 761 mmHg 43%
    14:00 +29°C° 0 mm 2 m/S 761 mmHg 43%
    15:00 +29°C° 0 mm 2 m/S 761 mmHg 42%
    16:00 +29°C° 0 mm 2 m/S 761 mmHg 45%
    17:00 +28°C° 0 mm 1 m/S 760 mmHg 49%
    18:00 +28°C° 0 mm 1 m/S 760 mmHg 53%
    19:00 +26°C° 0 mm 1 m/S 761 mmHg 56%
    20:00 +24°C° 0 mm 1 m/S 761 mmHg 60%
    21:00 +23°C° 0 mm 1 m/S 761 mmHg 64%
    22:00 +22°C° 0 mm 1 m/S 761 mmHg 65%
    23:00 +22°C° 0 mm 1 m/S 761 mmHg 67%

    Morgen, 23 Juli, Dienstag

    Zeit Temperatur Niederschläge Wind Luftdruck Luftfeuchtigkeit
    00:00 +21°C° 0 mm 1 m/S 761 mmHg 69%
    01:00 +21°C° 0 mm 1 m/S 761 mmHg 70%
    02:00 +20°C° 0 mm 1 m/S 761 mmHg 71%
    03:00 +20°C° 0 mm 1 m/S 760 mmHg 72%
    04:00 +21°C° 0 mm 1 m/S 760 mmHg 69%
    05:00 +22°C° 0 mm 1 m/S 760 mmHg 66%
    06:00 +23°C° 0 mm 1 m/S 760 mmHg 64%
    07:00 +25°C° 0 mm 1 m/S 760 mmHg 57%
    08:00 +27°C° 0 mm 2 m/S 760 mmHg 51%
    09:00 +29°C° 0 mm 2 m/S 760 mmHg 45%
    10:00 +30°C° 0 mm 2 m/S 759 mmHg 41%
    11:00 +31°C° 0 mm 2 m/S 759 mmHg 37%
    12:00 +34°C° 0 mm 2 m/S 758 mmHg 34%
    13:00 +34°C° 0 mm 2 m/S 758 mmHg 33%
    14:00 +35°C° 0 mm 2 m/S 758 mmHg 32%
    15:00 +35°C° 0 mm 2 m/S 757 mmHg 31%
    16:00 +34°C° 0 mm 2 m/S 757 mmHg 35%
    17:00 +32°C° 0 mm 2 m/S 757 mmHg 40%
    18:00 +31°C° 0 mm 2 m/S 756 mmHg 44%
    19:00 +29°C° 0 mm 2 m/S 757 mmHg 48%
    20:00 +28°C° 0 mm 2 m/S 757 mmHg 52%
    21:00 +26°C° 0 mm 2 m/S 757 mmHg 56%
    22:00 +25°C° 0 mm 2 m/S 757 mmHg 59%
    23:00 +24°C° 0 mm 2 m/S 756 mmHg 61%

    übermorgen, 24 Juli, Mittwoch

    Zeit Temperatur Niederschläge Wind Luftdruck Luftfeuchtigkeit
    00:00 +24°C° 0 mm 2 m/S 756 mmHg 63%
    01:00 +23°C° 0 mm 2 m/S 756 mmHg 66%
    02:00 +23°C° 0 mm 2 m/S 756 mmHg 69%
    03:00 +21°C° 0 mm 2 m/S 756 mmHg 71%
    04:00 +23°C° 0 mm 2 m/S 756 mmHg 69%
    05:00 +24°C° 0 mm 2 m/S 756 mmHg 68%
    06:00 +25°C° 0 mm 2 m/S 756 mmHg 66%
    07:00 +27°C° 0 mm 3 m/S 755 mmHg 59%
    08:00 +29°C° 0 mm 3 m/S 755 mmHg 53%
    09:00 +31°C° 0 mm 3 m/S 755 mmHg 46%
    10:00 +34°C° 0 mm 3 m/S 755 mmHg 41%
    11:00 +35°C° 0 mm 3 m/S 755 mmHg 36%
    12:00 +37°C° 0 mm 3 m/S 755 mmHg 31%
    13:00 +37°C° 0 mm 2 m/S 755 mmHg 30%
    14:00 +38°C° 0 mm 2 m/S 754 mmHg 28%
    15:00 +38°C° 0 mm 2 m/S 754 mmHg 27%
    16:00 +37°C° 0 mm 2 m/S 754 mmHg 32%
    17:00 +36°C° 0 mm 2 m/S 754 mmHg 37%
    18:00 +35°C° 0 mm 2 m/S 754 mmHg 41%
    19:00 +32°C° 0 mm 2 m/S 754 mmHg 45%
    20:00 +30°C° 0 mm 2 m/S 755 mmHg 48%
    21:00 +28°C° 0 mm 2 m/S 755 mmHg 52%
    22:00 +27°C° 0 mm 2 m/S 755 mmHg 53%
    23:00 +27°C° 0 mm 2 m/S 755 mmHg 55%

    25 Juli, Donnerstag

    Zeit Temperatur Niederschläge Wind Luftdruck Luftfeuchtigkeit
    00:00 +26°C° 0 mm 2 m/S 755 mmHg 57%
    01:00 +26°C° 0 mm 2 m/S 755 mmHg 59%
    02:00 +25°C° 0 mm 2 m/S 755 mmHg 62%
    03:00 +24°C° 0 mm 2 m/S 755 mmHg 65%
    04:00 +25°C° 0 mm 2 m/S 755 mmHg 65%
    05:00 +26°C° 0 mm 2 m/S 755 mmHg 65%
    06:00 +27°C° 0 mm 2 m/S 755 mmHg 65%
    07:00 +29°C° 0 mm 3 m/S 755 mmHg 57%
    08:00 +32°C° 0 mm 4 m/S 755 mmHg 50%
    09:00 +34°C° 0 mm 4 m/S 755 mmHg 42%
    10:00 +35°C° 0 mm 4 m/S 754 mmHg 38%
    11:00 +36°C° 0 mm 4 m/S 754 mmHg 35%
    12:00 +38°C° 0 mm 4 m/S 754 mmHg 31%
    13:00 +38°C° 0 mm 4 m/S 753 mmHg 30%
    14:00 +38°C° 0 mm 4 m/S 753 mmHg 29%
    15:00 +38°C° 0 mm 4 m/S 752 mmHg 29%
    16:00 +37°C° 0 mm 4 m/S 752 mmHg 33%
    17:00 +36°C° 0 mm 3 m/S 752 mmHg 37%
    18:00 +35°C° 0 mm 3 m/S 752 mmHg 42%
    19:00 +33°C° 0 mm 3 m/S 752 mmHg 45%
    20:00 +31°C° 0 mm 3 m/S 752 mmHg 49%
    21:00 +29°C° 0 mm 3 m/S 752 mmHg 52%
    22:00 +28°C° 0 mm 3 m/S 752 mmHg 54%
    23:00 +27°C° 0 mm 3 m/S 752 mmHg 56%

    26 Juli, Freitag

    Zeit Temperatur Niederschläge Wind Luftdruck Luftfeuchtigkeit
    00:00 +27°C° 0 mm 3 m/S 751 mmHg 58%
    01:00 +26°C° 0 mm 3 m/S 751 mmHg 61%
    02:00 +26°C° 0 mm 3 m/S 751 mmHg 63%
    03:00 +25°C° 0 mm 3 m/S 750 mmHg 66%
    04:00 +26°C° 0 mm 4 m/S 750 mmHg 65%
    05:00 +27°C° 0 mm 4 m/S 750 mmHg 64%
    06:00 +27°C° 0 mm 4 m/S 750 mmHg 63%
    07:00 +29°C° 0 mm 4 m/S 750 mmHg 58%
    08:00 +32°C° 0 mm 4 m/S 750 mmHg 53%
    09:00 +34°C° 0 mm 4 m/S 750 mmHg 48%
    10:00 +35°C° 0 mm 3 m/S 750 mmHg 44%
    11:00 +36°C° 0 mm 3 m/S 750 mmHg 40%
    12:00 +37°C° 0 mm 3 m/S 750 mmHg 37%
    13:00 +37°C° 0 mm 4 m/S 750 mmHg 38%
    14:00 +36°C° 0 mm 4 m/S 750 mmHg 39%
    15:00 +36°C° 0 mm 4 m/S 749 mmHg 40%
    16:00 +34°C° 0.1 mm 4 m/S 750 mmHg 46%
    17:00 +32°C° 0.1 mm 4 m/S 750 mmHg 52%
    18:00 +29°C° 0.1 mm 4 m/S 750 mmHg 58%
    19:00 +27°C° 0.6 mm 4 m/S 750 mmHg 64%
    20:00 +25°C° 0.6 mm 3 m/S 751 mmHg 69%
    21:00 +24°C° 0.6 mm 2 m/S 751 mmHg 75%
    22:00 +23°C° 0.5 mm 2 m/S 752 mmHg 76%
    23:00 +23°C° 0.5 mm 2 m/S 752 mmHg 77%

    27 Juli, Samstag

    Zeit Temperatur Niederschläge Wind Luftdruck Luftfeuchtigkeit
    00:00 +23°C° 0.5 mm 1 m/S 752 mmHg 79%
    01:00 +22°C° 1.1 mm 1 m/S 752 mmHg 81%
    02:00 +22°C° 1.1 mm 1 m/S 752 mmHg 83%
    03:00 +22°C° 1.1 mm 1 m/S 752 mmHg 86%
    04:00 +22°C° 2 mm 1 m/S 752 mmHg 86%
    05:00 +22°C° 2 mm 1 m/S 753 mmHg 87%
    06:00 +22°C° 2 mm 1 m/S 753 mmHg 88%
    07:00 +21°C° 0.4 mm 2 m/S 753 mmHg 84%
    08:00 +22°C° 0.4 mm 3 m/S 753 mmHg 81%
    09:00 +22°C° 0.4 mm 3 m/S 754 mmHg 78%
    10:00 +24°C° 0.2 mm 3 m/S 754 mmHg 72%
    11:00 +24°C° 0.2 mm 3 m/S 754 mmHg 67%
    12:00 +25°C° 0.2 mm 3 m/S 754 mmHg 61%
    13:00 +24°C° 0.4 mm 2 m/S 754 mmHg 65%
    14:00 +23°C° 0.4 mm 2 m/S 754 mmHg 69%
    15:00 +22°C° 0.4 mm 1 m/S 754 mmHg 73%
    16:00 +22°C° 0.1 mm 1 m/S 754 mmHg 72%
    17:00 +23°C° 0.1 mm 1 m/S 754 mmHg 70%
    18:00 +23°C° 0.1 mm 1 m/S 754 mmHg 68%
    19:00 +22°C° 0 mm 1 m/S 755 mmHg 70%
    20:00 +21°C° 0 mm 1 m/S 755 mmHg 72%
    21:00 +20°C° 0 mm 1 m/S 755 mmHg 74%
    22:00 +19°C° 0 mm 1 m/S 756 mmHg 74%
    23:00 +19°C° 0 mm 1 m/S 756 mmHg 74%
    Mehr zeigen